Location: Thompson
(55.7500°N, 97.8670°W)
Time: 13:12:34
(UTC-05:00)

Amateur Radio Satellites - All Passes

Search period start: 18 April 2014 12:42
Search period end: 19 April 2014 12:42
Location: Thompson, 55.7500°N, 97.8670°W

Satellite Date Start Highest point End Downlink Frequencies (MHz)
Time Altitude Azimuth
FUNcube-1 18 Apr 12:51:27 12:55:37 62° 290° (WNW) 12:59:50 145.950 - 145.970 MHz USB
Uribyol 2 18 Apr 12:52:11 12:56:09 23° 52° (NE) 13:00:06 436.500 FM
Saudisat 1A 18 Apr 13:01:36 13:05:57 51° 130° (SE) 13:10:17 436.775 MHz
Oscar 11 18 Apr 13:05:40 13:09:06 23° 303° (WNW) 13:12:31 145.825 FM, Beacon 2401.500 USB
AO-7 18 Apr 13:15:35 13:20:53 19° 22° (NNE) 13:26:12 29.400 - 29.500 MHz
Gurwin Techsat 1B 18 Apr 13:18:38 13:21:43 16° 45° (NE) 13:24:48 435.225 FM
HO-68 18 Apr 13:27:24 13:33:13 28° 316° (NW) 13:39:03 435.675 MHz FM
AO-27 18 Apr 13:30:41 13:35:26 38° 60° (ENE) 13:40:12 436.795 MHz FM
ITAMSAT 1 18 Apr 13:41:32 13:46:25 43° 62° (ENE) 13:51:19 435.822 SSB
Oscar 19 18 Apr 13:48:43 13:53:52 75° 70° (ENE) 13:59:03 437.125 CW, 437.150 USB
Oscar 16 18 Apr 13:56:47 14:01:57 89° 72° (ENE) 14:07:10 437.025 USB, Beacon 2401.1428
AO-Echo 18 Apr 14:00:17 14:05:16 48° 65° (ENE) 14:10:08 ?
TMSAT-1 18 Apr 14:06:11 14:10:17 23° 53° (NE) 14:14:24 436.925 FM
JAS-1B 18 Apr 14:07:45 14:13:02 23° 47° (NE) 14:17:47 435.800 - 435.900 CW/SSB
Uosat F 18 Apr 14:20:32 14:23:20 15° 45° (NE) 14:26:07 435.120 FM
KITSAT 1 18 Apr 14:24:55 14:30:59 24° 255° (WSW) 14:37:01 435.175 FM
FUNcube-1 18 Apr 14:29:30 14:31:18 13° 310° (NW) 14:33:06 145.950 - 145.970 MHz USB
Uribyol 2 18 Apr 14:29:55 14:35:06 86° 253° (WSW) 14:40:18 436.500 FM
RS-15 18 Apr 14:37:33 14:48:29 66° 27° (NNE) 14:59:29 29.354 - 29.394 USB, Beacon 29.352 USB
Saudisat 1A 18 Apr 14:41:21 14:45:41 46° 331° (NNW) 14:50:00 436.775 MHz
Gurwin Techsat 1B 18 Apr 14:55:32 15:00:44 59° 67° (ENE) 15:05:58 435.225 FM
OPAL 18 Apr 14:58:56 15:01:31 14° 86° (E) 15:04:06 ?
AO-7 18 Apr 15:04:10 15:11:39 40° 47° (NE) 15:19:09 29.400 - 29.500 MHz
AO-27 18 Apr 15:09:55 15:14:55 47° 261° (W) 15:19:57 436.795 MHz FM
Oscar 10/S400 18 Apr 15:14:19 16:13:24 16° 266° (W) 17:52:19 145.825 - 145.975 CW/USB, Beacon 145.810 USB
HO-68 18 Apr 15:15:57 15:18:45 13° 341° (NNW) 15:21:32 435.675 MHz FM
ITAMSAT 1 18 Apr 15:21:09 15:26:01 40° 263° (W) 15:30:54 435.822 SSB
Oscar 19 18 Apr 15:29:47 15:33:48 23° 271° (W) 15:37:50 437.125 CW, 437.150 USB
Oscar 16 18 Apr 15:38:29 15:42:03 19° 273° (W) 15:45:39 437.025 USB, Beacon 2401.1428
AO-Echo 18 Apr 15:39:26 15:44:13 36° 265° (W) 15:48:54 ?
TMSAT-1 18 Apr 15:44:22 15:49:41 86° 254° (WSW) 15:55:02 436.925 FM
JAS-1B 18 Apr 15:55:18 16:02:58 73° 68° (ENE) 16:09:23 435.800 - 435.900 CW/SSB
Uosat F 18 Apr 15:56:18 16:01:14 59° 67° (ENE) 16:06:10 435.120 FM
Uribyol 2 18 Apr 16:11:58 16:15:23 18° 274° (W) 16:18:48 436.500 FM
Saudisat 1A 18 Apr 16:22:22 16:26:12 27° 355° (N) 16:30:01 436.775 MHz
OPAL 18 Apr 16:36:11 16:41:24 67° 106° (ESE) 16:46:36 ?
Gurwin Techsat 1B 18 Apr 16:36:26 16:41:04 30° 267° (W) 16:45:44 435.225 FM
RS-15 18 Apr 16:50:20 17:01:02 64° 236° (SW) 17:11:55 29.354 - 29.394 USB, Beacon 29.352 USB
AO-7 18 Apr 16:55:42 17:04:00 77° 251° (WSW) 17:12:21 29.400 - 29.500 MHz
JAS-2 18 Apr 17:00:16 17:02:03 12° 40° (NE) 17:03:48 435.800 - 435.900 CW/SSB, 435.910 FM
HO-68 18 Apr 17:02:22 17:03:31 10° 7° (N) 17:04:40 435.675 MHz FM
SO-50 18 Apr 17:05:40 17:09:48 37° 125° (SE) 17:13:59 436.795 FM
ISS 18 Apr 17:13:21 17:15:22 15° 148° (SSE) 17:17:23 145.800 FM
TMSAT-1 18 Apr 17:26:53 17:30:26 18° 274° (W) 17:33:59 436.925 FM
Uosat F 18 Apr 17:36:04 17:40:23 28° 267° (W) 17:44:42 435.120 FM
Hamsat 18 Apr 17:47:23 17:51:08 32° 63° (ENE) 17:54:57 145.90 MHz
JAS-1B 18 Apr 17:47:27 17:54:07 31° 267° (W) 17:59:55 435.800 - 435.900 CW/SSB
UOSAT-12 18 Apr 17:57:31 17:59:00 11° 109° (ESE) 18:00:28 437.025 FM, 437.400 FM
Saudisat 1A 18 Apr 18:02:49 18:06:53 33° 19° (NNE) 18:10:55 436.775 MHz
OPAL 18 Apr 18:15:32 18:19:59 29° 307° (NW) 18:24:26 ?
SO-67 18 Apr 18:19:00 18:20:52 14° 56° (ENE) 18:22:44 435.3500 MHz FM
JAS-2 18 Apr 18:40:46 18:46:01 43° 63° (ENE) 18:50:58 435.800 - 435.900 CW/SSB, 435.910 FM
HO-68 18 Apr 18:43:58 18:48:36 19° 33° (NNE) 18:53:15 435.675 MHz FM
SO-50 18 Apr 18:45:49 18:50:16 57° 327° (NNW) 18:54:48 436.795 FM
ISS 18 Apr 18:48:23 18:51:29 34° 167° (SSE) 18:54:35 145.800 FM
AO-7 18 Apr 18:52:00 18:58:14 23° 274° (W) 19:04:31 29.400 - 29.500 MHz
RS-15 18 Apr 19:03:48 19:11:08 21° 261° (W) 19:18:34 29.354 - 29.394 USB, Beacon 29.352 USB
STRAND 1 18 Apr 19:13:09 19:16:54 20° 88° (E) 19:20:38 ?
Hamsat 18 Apr 19:23:06 19:27:05 40° 263° (W) 19:31:08 145.90 MHz
UOSAT-12 18 Apr 19:33:41 19:38:10 54° 130° (SE) 19:42:46 437.025 FM, 437.400 FM
Saudisat 1A 18 Apr 19:42:31 19:47:00 88° 42° (NE) 19:51:25 436.775 MHz
SO-67 18 Apr 19:50:02 19:53:32 82° 257° (WSW) 19:57:05 435.3500 MHz FM
ISS 18 Apr 20:24:41 20:27:52 39° 187° (S) 20:31:02 145.800 FM
JAS-2 18 Apr 20:25:59 20:31:17 40° 263° (W) 20:36:15 435.800 - 435.900 CW/SSB, 435.910 FM
SO-50 18 Apr 20:27:41 20:31:39 29° 350° (N) 20:35:41 436.795 FM
HO-68 18 Apr 20:28:03 20:34:51 49° 57° (ENE) 20:41:40 435.675 MHz FM
STRAND 1 18 Apr 20:51:37 20:56:45 82° 289° (WNW) 21:01:51 ?
Oscar 11 18 Apr 20:56:20 20:59:43 23° 57° (ENE) 21:03:07 145.825 FM, Beacon 2401.500 USB
UOSAT-12 18 Apr 21:13:59 21:18:29 46° 332° (NNW) 21:23:03 437.025 FM, 437.400 FM
Saudisat 1A 18 Apr 21:22:48 21:26:07 21° 242° (WSW) 21:29:25 436.775 MHz
ISS 18 Apr 22:01:31 22:04:06 21° 207° (SSW) 22:06:40 145.800 FM
SO-50 18 Apr 22:09:15 22:13:21 31° 15° (NNE) 22:17:29 436.795 FM
HO-68 18 Apr 22:15:41 22:22:36 52° 259° (W) 22:29:36 435.675 MHz FM
FUNcube-1 18 Apr 22:19:22 22:23:18 41° 66° (ENE) 22:27:14 145.950 - 145.970 MHz USB
Oscar 11 18 Apr 22:31:18 22:35:35 64° 257° (WSW) 22:39:55 145.825 FM, Beacon 2401.500 USB
STRAND 1 18 Apr 22:31:41 22:35:18 20° 310° (NW) 22:38:54 ?
MaSat-1 18 Apr 22:50:23 22:52:43 26° 119° (ESE) 22:54:54 437.345 MHz
UOSAT-12 18 Apr 22:55:31 22:59:36 28° 356° (N) 23:03:43 437.025 FM, 437.400 FM
SO-50 18 Apr 23:49:58 23:54:35 71° 38° (NE) 23:59:15 436.795 FM
FUNcube-1 18 Apr 23:56:11 23:59:53 30° 265° (W) 00:03:34 145.950 - 145.970 MHz USB
HO-68 19 Apr 00:09:14 00:12:09 13° 282° (WNW) 00:15:04 435.675 MHz FM
Oscar 11 19 Apr 00:11:59 00:12:42 10° 278° (W) 00:13:25 145.825 FM, Beacon 2401.500 USB
MaSat-1 19 Apr 00:28:59 00:31:09 23° 318° (NW) 00:33:14 437.345 MHz
UOSAT-12 19 Apr 00:36:29 00:40:51 36° 20° (NNE) 00:45:14 437.025 FM, 437.400 FM
PCSat 19 Apr 00:42:26 00:45:23 15° 105° (ESE) 00:48:21 145.825 MHz
OPAL 19 Apr 00:44:22 00:47:12 15° 41° (NE) 00:50:04 ?
SO-50 19 Apr 01:30:54 01:34:53 29° 238° (WSW) 01:38:54 436.795 FM
Sapphire 19 Apr 01:38:18 01:43:06 33° 116° (ESE) 01:47:55 437.095 MHz 1200 baud AX-25 AFSK
Oscar 19 19 Apr 01:53:45 01:56:54 16° 85° (E) 02:00:01 437.125 CW, 437.150 USB
Oscar 16 19 Apr 02:01:34 02:05:15 19° 87° (E) 02:08:55 437.025 USB, Beacon 2401.1428
UOSAT-12 19 Apr 02:16:45 02:21:31 89° 222° (SW) 02:26:15 437.025 FM, 437.400 FM
OPAL 19 Apr 02:20:12 02:25:07 53° 62° (ENE) 02:30:08 ?
PCSat 19 Apr 02:22:29 02:27:50 64° 126° (SE) 02:33:14 145.825 MHz
Uribyol 2 19 Apr 02:35:40 02:39:26 20° 88° (E) 02:43:12 436.500 FM
Gurwin Techsat 1B 19 Apr 03:05:32 03:08:03 13° 82° (E) 03:10:34 435.225 FM
KITSAT 1 19 Apr 03:06:23 03:12:47 27° 107° (ESE) 03:19:11 435.175 FM
AO-27 19 Apr 03:15:03 03:19:51 37° 96° (E) 03:24:37 436.795 MHz FM
Sapphire 19 Apr 03:20:51 03:26:15 67° 318° (NW) 03:31:42 437.095 MHz 1200 baud AX-25 AFSK
ITAMSAT 1 19 Apr 03:25:51 03:30:48 43° 98° (E) 03:35:43 435.822 SSB
Oscar 19 19 Apr 03:31:53 03:37:08 78° 105° (ESE) 03:42:21 437.125 CW, 437.150 USB
AO-Echo 19 Apr 03:38:36 03:43:17 44° 98° (E) 03:47:49 ?
Oscar 16 19 Apr 03:40:06 03:45:20 88° 288° (WNW) 03:50:34 437.025 USB, Beacon 2401.1428
TMSAT-1 19 Apr 03:53:01 03:57:11 23° 89° (E) 04:01:18 436.925 FM
UOSAT-12 19 Apr 03:57:35 04:01:09 22° 243° (WSW) 04:04:42 437.025 FM, 437.400 FM
OPAL 19 Apr 03:59:46 04:04:16 32° 263° (W) 04:08:52 ?
PCSat 19 Apr 04:06:26 04:11:35 42° 329° (NNW) 04:16:46 145.825 MHz
Uribyol 2 19 Apr 04:14:24 04:19:36 84° 289° (WNW) 04:24:48 436.500 FM
Gurwin Techsat 1B 19 Apr 04:43:47 04:49:06 66° 103° (ESE) 04:54:23 435.225 FM
AO-7 19 Apr 04:49:05 04:55:35 24° 87° (E) 05:02:03 29.400 - 29.500 MHz
AO-27 19 Apr 04:54:34 04:59:32 47° 297° (WNW) 05:04:28 436.795 MHz FM
KITSAT 1 19 Apr 04:59:00 05:07:08 80° 130° (SE) 05:15:17 435.175 FM
STRAND 1 19 Apr 04:59:59 05:02:56 16° 46° (NE) 05:05:52 ?
ITAMSAT 1 19 Apr 05:05:30 05:10:20 40° 299° (WNW) 05:15:08 435.822 SSB
Sapphire 19 Apr 05:05:51 05:10:36 30° 342° (NNW) 05:15:21 437.095 MHz 1200 baud AX-25 AFSK
Oscar 19 19 Apr 05:11:52 05:16:02 25° 306° (NW) 05:20:11 437.125 CW, 437.150 USB
AO-Echo 19 Apr 05:17:36 05:22:01 35° 299° (WNW) 05:26:19 ?
Oscar 16 19 Apr 05:20:14 05:24:06 22° 309° (NW) 05:27:58 437.025 USB, Beacon 2401.1428
JAS-1B 19 Apr 05:22:19 05:27:57 50° 100° (E) 05:33:30 435.800 - 435.900 CW/SSB
MaSat-1 19 Apr 05:28:48 05:30:14 13° 34° (NE) 05:31:43 437.345 MHz
TMSAT-1 19 Apr 05:32:23 05:37:43 76° 290° (WNW) 05:43:00 436.925 FM
Uosat F 19 Apr 05:35:01 05:39:57 53° 101° (E) 05:44:50 435.120 FM
PCSat 19 Apr 05:51:49 05:56:19 26° 354° (N) 06:00:49 145.825 MHz
Uribyol 2 19 Apr 05:54:42 05:58:27 21° 310° (NW) 06:02:12 436.500 FM
Gurwin Techsat 1B 19 Apr 06:24:14 06:28:46 29° 304° (NW) 06:33:18 435.225 FM
AO-27 19 Apr 06:35:40 06:37:57 13° 318° (NW) 06:40:14 436.795 MHz FM
STRAND 1 19 Apr 06:36:12 06:41:14 60° 67° (ENE) 06:46:17 ?
AO-7 19 Apr 06:41:21 06:49:44 80° 110° (ESE) 06:58:05 29.400 - 29.500 MHz
ITAMSAT 1 19 Apr 06:46:58 06:48:36 12° 320° (NW) 06:50:15 435.822 SSB
Sapphire 19 Apr 06:51:03 06:55:34 26° 8° (N) 07:00:05 437.095 MHz 1200 baud AX-25 AFSK
KITSAT 1 19 Apr 06:55:18 07:03:11 51° 336° (NNW) 07:11:05 435.175 FM
Hamsat 19 Apr 07:01:27 07:04:59 24° 91° (E) 07:08:31 145.90 MHz
MaSat-1 19 Apr 07:06:18 07:08:59 85° 234° (SW) 07:12:04 437.345 MHz
TMSAT-1 19 Apr 07:13:14 07:16:55 19° 311° (NW) 07:20:35 436.925 FM
JAS-1B 19 Apr 07:13:20 07:18:37 37° 303° (WNW) 07:23:46 435.800 - 435.900 CW/SSB
Uosat F 19 Apr 07:14:09 07:18:35 32° 302° (WNW) 07:23:00 435.120 FM
RS-15 19 Apr 07:23:03 07:32:57 39° 111° (ESE) 07:42:37 29.354 - 29.394 USB, Beacon 29.352 USB
JAS-2 19 Apr 07:26:11 07:29:43 18° 87° (E) 07:33:24 435.800 - 435.900 CW/SSB, 435.910 FM
PCSat 19 Apr 07:36:27 07:41:16 31° 20° (NNE) 07:46:04 145.825 MHz
STRAND 1 19 Apr 08:16:26 08:20:48 28° 267° (W) 08:25:12 ?
AO-7 19 Apr 08:34:33 08:42:00 39° 314° (NW) 08:49:27 29.400 - 29.500 MHz
Sapphire 19 Apr 08:35:03 08:40:16 44° 33° (NNE) 08:45:28 437.095 MHz 1200 baud AX-25 AFSK
Hamsat 19 Apr 08:37:02 08:41:18 56° 291° (WNW) 08:45:34 145.90 MHz
SO-67 19 Apr 08:40:26 08:43:49 42° 98° (E) 08:47:10 435.3500 MHz FM
KITSAT 1 19 Apr 08:52:42 09:00:20 41° 5° (N) 09:07:56 435.175 FM
JAS-1B 19 Apr 09:05:59 09:07:39 11° 329° (NNW) 09:09:18 435.800 - 435.900 CW/SSB
JAS-2 19 Apr 09:10:22 09:15:38 88° 107° (ESE) 09:21:18 435.800 - 435.900 CW/SSB, 435.910 FM
PCSat 19 Apr 09:20:05 09:25:32 72° 44° (NE) 09:30:58 145.825 MHz
RS-15 19 Apr 09:33:04 09:44:17 88° 318° (NW) 09:55:18 29.354 - 29.394 USB, Beacon 29.352 USB
HO-68 19 Apr 09:35:05 09:40:41 24° 87° (E) 09:46:15 435.675 MHz FM
Oscar 11 19 Apr 10:12:29 10:15:04 15° 86° (E) 10:17:38 145.825 FM, Beacon 2401.500 USB
SO-67 19 Apr 10:14:01 10:16:48 22° 298° (WNW) 10:19:35 435.3500 MHz FM
Hamsat 19 Apr 10:14:48 10:16:27 12° 311° (NW) 10:18:06 145.90 MHz
Sapphire 19 Apr 10:18:36 10:23:57 59° 235° (SW) 10:29:15 437.095 MHz 1200 baud AX-25 AFSK
AO-7 19 Apr 10:27:29 10:32:43 19° 339° (NNW) 10:37:58 29.400 - 29.500 MHz
KITSAT 1 19 Apr 10:49:10 10:57:14 61° 32° (NNE) 11:05:15 435.175 FM
JAS-2 19 Apr 10:56:21 11:00:17 22° 308° (NW) 11:04:22 435.800 - 435.900 CW/SSB, 435.910 FM
PCSat 19 Apr 11:03:55 11:08:37 30° 245° (WSW) 11:13:17 145.825 MHz
HO-68 19 Apr 11:22:12 11:29:27 85° 109° (ESE) 11:36:40 435.675 MHz FM
Saudisat 1A 19 Apr 11:36:40 11:39:36 17° 115° (ESE) 11:42:33 436.775 MHz
FUNcube-1 19 Apr 11:37:12 11:40:59 31° 95° (E) 11:44:48 145.950 - 145.970 MHz USB
Oscar 19 19 Apr 11:42:01 11:44:13 13° 42° (NE) 11:46:26 437.125 CW, 437.150 USB
RS-15 19 Apr 11:47:00 11:57:50 56° 348° (NNW) 12:08:35 29.354 - 29.394 USB, Beacon 29.352 USB
Oscar 11 19 Apr 11:47:31 11:51:55 89° 286° (WNW) 11:56:17 145.825 FM, Beacon 2401.500 USB
Oscar 16 19 Apr 11:49:32 11:52:18 15° 45° (NE) 11:55:05 437.025 USB, Beacon 2401.1428
Sapphire 19 Apr 12:03:47 12:06:20 14° 256° (WSW) 12:08:52 437.095 MHz 1200 baud AX-25 AFSK
AO-7 19 Apr 12:18:08 12:22:33 16° 7° (N) 12:26:58 29.400 - 29.500 MHz
Uribyol 2 19 Apr 12:24:11 12:27:13 16° 46° (NE) 12:30:14 436.500 FM
